Wind_Speed
15 14 13 14 13 12 12 11 11 11 12 12 13 14 12 12 10 10 10 10 11 11 11 11 12 13 14 15 15 15 13 11
14 14 13 11 10 10 10 10 10 10 11 11 11 10 9 9 8 5 5 5 5 6 8 9 9 10 12 13 14 12 13 10
13 14 13 11 10 8 8 9 10 11 10 9 7 5 5 4 3 3 2 2 2 3 4 5 9 11 13 15 15 14 13 11
10 12 10 10 9 10 8 8 7 5 5 4 3 2 2 2 1 1 1 2 2 2 3 7 9 10 12 14 15 14 13 13
10 10 10 10 8 9 7 7 5 4 2 1 2 2 2 2 2 1 0 1 1 3 5 5 7 10 11 12 13 15 14 13
12 11 11 10 10 9 8 6 3 2 1 2 3 3 2 3 2 1 0 1 2 3 3 4 6 8 10 11 12 13 13 13
12 11 11 11 12 10 9 6 3 3 4 5 4 2 2 3 2 1 1 3 4 5 6 8 9 10 11 11 11 12 12 13
12 11 12 11 13 12 9 7 4 2 8 13 4 3 3 3 2 1 2 4 5 6 7 9 11 12 13 12 12 14 14 14
13 13 13 13 13 13 11 9 10 15 16 10 7 5 7 3 2 2 2 2 4 6 7 10 12 13 15 16 16 17 18 17
16 15 14 14 15 13 6 9 16 14 5 2 3 4 4 3 0 2 3 5 5 7 9 11 13 15 17 19 21 22 23 21
19 19 20 17 11 4 8 11 10 6 7 8 8 6 3 0 3 4 5 5 7 8 11 13 16 18 19 22 22 22 23 21
20 21 20 17 13 15 9 7 9 8 7 5 4 3 3 4 4 5 6 8 10 12 13 14 16 17 19 22 19 22 21 16
20 20 15 12 12 12 11 11 8 6 5 5 4 3 4 5 4 6 9 11 11 10 11 14 16 16 19 21 22 19 10 11
18 16 12 12 11 12 11 10 7 7 6 4 4 4 4 4 5 8 10 10 10 10 11 14 17 14 15 20 10 17 20 8
16 14 14 14 14 10 8 8 7 5 2 2 3 2 2 4 7 9 10 12 13 11 11 10 13 14 11 13 10 10 19 21
15 16 15 11 8 7 5 3 4 3 3 2 0 2 5 8 10 12 13 13 12 11 9 9 10 14 13 13 13 15 10 13
15 14 12 11 10 10 9 9 7 4 2 3 5 7 10 12 13 14 14 12 10 7 7 11 12 12 14 13 13 14 15 15
14 14 14 13 12 11 10 9 6 3 3 6 8 11 13 15 15 17 16 13 10 8 12 11 13 12 11 11 12 14 16 17
15 15 15 12 10 9 8 7 6 4 6 8 11 14 16 18 18 19 18 15 11 13 12 14 14 12 12 13 12 14 16 18
15 14 13 11 9 7 6 4 3 4 6 9 11 12 13 16 18 18 16 14 13 15 15 13 13 13 13 14 15 16 17 18
Wind_Direction
145 150 153 156 155 152 146 141 135 133 132 129 125 119 119 114 112 104 98 91 84 78 67 57 48 42 34 30 24 27 19 15
142 142 147 147 146 152 144 138 134 132 137 137 130 125 120 113 92 110 100 94 85 74 65 55 50 40 29 22 16 11 358 352
136 145 151 151 147 146 139 139 143 144 143 150 128 134 122 100 146 110 87 53 35 64 60 37 41 19 15 7 7 353 345 344
144 146 142 141 141 140 136 142 149 148 148 163 143 152 153 140 98 102 38 10 7 59 47 27 18 3 360 359 353 353 346 342
147 137 142 138 142 133 129 134 147 164 167 188 230 229 225 230 217 157 163 44 355 1 360 3 8 3 353 352 348 343 337 336
153 148 133 130 131 124 128 123 119 90 349 313 279 271 245 217 213 203 250 303 303 331 335 354 354 354 349 345 341 336 330 328
146 137 137 136 127 120 119 112 76 12 352 338 341 299 243 214 201 251 317 319 323 327 330 330 337 335 334 336 331 326 325 322
140 139 136 132 130 125 109 94 62 35 356 337 280 250 272 227 189 268 304 328 321 326 327 331 331 327 323 322 322 315 313 312
145 139 136 130 124 114 92 16 339 325 311 306 262 243 230 201 202 250 294 325 350 338 335 328 323 320 318 317 312 309 308 304
151 139 128 122 115 107 7 314 249 292 312 306 162 179 189 226 279 18 355 4 3 345 337 323 319 318 316 312 308 303 305 298
156 146 140 123 107 263 256 272 243 193 141 154 172 187 194 285 19 20 19 3 3 343 325 322 320 313 310 310 306 301 300 296
156 152 152 160 190 235 241 178 159 140 145 141 111 92 72 66 47 38 13 346 330 324 321 318 314 308 309 308 306 302 298 292
158 160 173 192 175 159 173 161 150 132 127 102 95 93 68 62 24 355 343 328 321 323 322 318 317 317 314 314 308 297 298 287
165 173 187 180 155 146 158 161 155 146 124 116 99 80 68 36 357 339 336 332 322 315 314 312 309 318 316 314 316 306 299 319
170 165 163 150 145 145 140 137 131 137 130 53 65 78 21 348 341 336 331 321 310 300 303 308 316 317 315 307 316 311 318 298
148 144 143 144 144 137 148 130 140 118 115 118 349 342 330 324 320 316 311 308 298 295 296 307 313 313 309 302 298 301 304 306
141 139 133 128 126 131 127 121 118 110 65 351 322 315 314 313 310 305 298 291 283 283 296 305 305 303 305 306 304 302 300 303
141 136 127 124 121 115 108 104 95 61 12 330 323 316 311 310 309 305 296 281 265 274 294 288 293 292 292 297 297 304 307 307
144 138 130 126 117 105 95 84 63 23 353 335 322 318 315 314 312 306 292 274 258 287 284 288 281 275 285 289 294 296 304 301
150 146 134 124 113 105 104 72 20 1 348 327 318 319 322 321 315 307 294 269 270 289 283 285 273 269 278 288 296 301 305 305
Height
845 848 852 856 858 861 863 864 866 867 869 871 871 870 872 871 872 870 870 869 868 868 867 866 865 864 862 860 861 859 857 856
845 849 854 858 861 863 865 866 868 870 872 873 872 872 872 872 873 873 872 870 871 869 868 868 865 865 863 861 860 858 858 856
846 851 856 860 863 865 867 867 869 871 872 874 875 876 874 876 874 873 873 871 871 869 868 868 866 864 862 863 860 860 859 856
849 854 858 861 864 866 867 871 874 876 877 878 875 876 875 875 874 874 872 872 872 870 868 868 866 865 862 862 862 860 859 857
852 855 858 861 866 866 869 872 875 876 877 877 875 876 874 875 875 873 874 872 873 871 869 868 866 864 864 862 861 860 858 856
854 857 859 862 865 866 870 873 875 877 876 875 876 876 876 875 875 874 874 873 872 870 869 867 865 864 863 862 860 859 857 855
855 857 859 862 864 867 870 873 874 875 876 877 877 876 875 876 874 874 873 874 873 871 869 868 865 864 863 860 859 858 856 853
854 859 860 863 864 867 870 871 872 873 874 875 875 876 876 876 874 874 874 872 872 870 869 867 865 864 862 860 858 857 854 852
855 858 860 863 866 867 869 869 869 871 871 869 874 874 875 875 873 874 873 871 870 869 868 867 865 863 861 858 856 854 852 849
853 856 860 864 866 866 868 870 870 872 870 871 872 874 874 875 874 873 872 871 869 869 868 867 864 862 859 857 854 851 848 846
850 853 858 860 863 866 864 870 870 870 869 870 871 872 873 874 873 873 872 872 869 869 868 867 863 860 858 854 851 848 845 841
850 852 856 855 855 863 864 866 868 870 869 872 873 873 874 874 874 873 872 871 870 869 867 865 863 860 856 851 848 845 842 838
851 854 856 857 856 859 863 866 868 870 872 871 873 874 873 873 873 873 872 871 870 868 866 864 862 860 856 849 845 840 839 837
849 852 854 857 857 860 863 866 869 870 870 873 874 873 873 874 874 872 871 869 868 867 865 862 859 857 856 850 840 838 834 836
846 849 853 856 859 862 864 867 868 870 872 873 873 874 874 873 872 870 869 867 866 865 863 861 858 855 854 853 843 837 838 837
847 851 854 857 859 861 863 862 864 869 871 872 873 873 872 871 870 868 867 865 864 862 861 860 857 853 851 849 849 846 841 835
849 852 855 857 859 862 863 865 867 869 870 871 871 871 871 869 868 866 864 862 861 860 859 857 855 853 850 849 847 845 842 839
851 853 856 859 861 862 864 865 866 867 868 868 868 868 867 866 865 864 862 860 858 857 855 854 853 852 851 849 847 844 841 838
852 854 857 860 862 863 865 865 866 866 867 866 867 865 865 864 862 860 857 856 855 853 852 851 850 848 848 847 845 842 840 838
852 854 857 859 861 863 864 864 865 866 866 867 865 864 863 862 860 857 854 853 852 850 848 847 846 845 844 844 841 839 838 835